When you browse on this site, cookies collect data to enhance your experience and personalize the content and advertising you see.
Visit our Privacy Policy to learn more. By continuing to use the site, you agree to this use of cookies and data.
  • In Hungary
  • List of Countries
  • For 7 days
  • Water Temperature
  • Weather Map
  • News
  • Weather Widgets
  • user-avatar
    Login

    Hourly Weather Tirana

    Today, 2 June, Tuesday

    Time Temperature Precipitation Wind Pressure Humidity
    00:00 +14°C° 0 mm 2 mps 751 mmHg 84%
    01:00 +13°C° 0 mm 2 mps 751 mmHg 84%
    02:00 +13°C° 0 mm 2 mps 751 mmHg 83%
    03:00 +13°C° 0 mm 2 mps 751 mmHg 82%
    04:00 +13°C° 0 mm 2 mps 751 mmHg 81%
    05:00 +15°C° 0 mm 2 mps 751 mmHg 75%
    06:00 +16°C° 0 mm 1 mps 751 mmHg 69%
    07:00 +19°C° 0 mm 1 mps 751 mmHg 63%
    08:00 +20°C° 0 mm 1 mps 750 mmHg 58%
    09:00 +21°C° 0 mm 2 mps 750 mmHg 53%
    10:00 +23°C° 0 mm 2 mps 750 mmHg 48%
    11:00 +24°C° 0 mm 3 mps 750 mmHg 48%
    12:00 +23°C° 0 mm 4 mps 750 mmHg 49%
    13:00 +23°C° 0 mm 5 mps 749 mmHg 49%
    14:00 +23°C° 0 mm 4 mps 749 mmHg 51%
    15:00 +22°C° 0 mm 4 mps 749 mmHg 53%
    16:00 +21°C° 0 mm 4 mps 749 mmHg 55%
    17:00 +20°C° 0 mm 3 mps 749 mmHg 63%
    18:00 +18°C° 0 mm 2 mps 749 mmHg 71%
    19:00 +17°C° 0 mm 2 mps 749 mmHg 79%
    20:00 +16°C° 0 mm 2 mps 749 mmHg 81%
    21:00 +16°C° 0 mm 2 mps 749 mmHg 83%
    22:00 +15°C° 0 mm 2 mps 749 mmHg 85%
    23:00 +15°C° 0.1 mm 2 mps 749 mmHg 85%

    Tomorrow, 3 June, Wednesday

    Time Temperature Precipitation Wind Pressure Humidity
    00:00 +15°C° 0.1 mm 2 mps 749 mmHg 84%
    01:00 +13°C° 0.1 mm 3 mps 749 mmHg 84%
    02:00 +13°C° 0 mm 3 mps 748 mmHg 82%
    03:00 +13°C° 0 mm 3 mps 748 mmHg 81%
    04:00 +13°C° 0 mm 3 mps 748 mmHg 80%
    05:00 +14°C° 0 mm 3 mps 748 mmHg 74%
    06:00 +17°C° 0 mm 3 mps 748 mmHg 67%
    07:00 +19°C° 0 mm 3 mps 748 mmHg 61%
    08:00 +20°C° 0 mm 2 mps 748 mmHg 57%
    09:00 +23°C° 0 mm 2 mps 748 mmHg 53%
    10:00 +24°C° 0 mm 1 mps 749 mmHg 49%
    11:00 +25°C° 0 mm 2 mps 748 mmHg 48%
    12:00 +25°C° 0 mm 3 mps 748 mmHg 46%
    13:00 +25°C° 0 mm 3 mps 748 mmHg 45%
    14:00 +25°C° 0 mm 3 mps 748 mmHg 46%
    15:00 +25°C° 0 mm 3 mps 748 mmHg 47%
    16:00 +24°C° 0 mm 3 mps 748 mmHg 48%
    17:00 +21°C° 0 mm 3 mps 748 mmHg 56%
    18:00 +19°C° 0 mm 2 mps 748 mmHg 64%
    19:00 +19°C° 0 mm 1 mps 748 mmHg 72%
    20:00 +18°C° 0 mm 1 mps 749 mmHg 72%
    21:00 +17°C° 0 mm 2 mps 749 mmHg 72%
    22:00 +16°C° 0 mm 2 mps 750 mmHg 72%
    23:00 +16°C° 0 mm 2 mps 749 mmHg 72%

    Day after tomorrow, 4 June, Thursday

    Time Temperature Precipitation Wind Pressure Humidity
    00:00 +16°C° 0 mm 2 mps 749 mmHg 73%
    01:00 +14°C° 0 mm 3 mps 749 mmHg 73%
    02:00 +14°C° 0 mm 3 mps 749 mmHg 73%
    03:00 +14°C° 0 mm 3 mps 749 mmHg 73%
    04:00 +14°C° 0 mm 4 mps 749 mmHg 72%
    05:00 +17°C° 0 mm 4 mps 749 mmHg 66%
    06:00 +19°C° 0 mm 4 mps 749 mmHg 59%
    07:00 +21°C° 0 mm 4 mps 749 mmHg 52%
    08:00 +23°C° 0 mm 4 mps 749 mmHg 49%
    09:00 +25°C° 0 mm 4 mps 750 mmHg 46%
    10:00 +27°C° 0 mm 4 mps 750 mmHg 43%
    11:00 +27°C° 0 mm 6 mps 750 mmHg 42%
    12:00 +28°C° 0 mm 7 mps 750 mmHg 42%
    13:00 +28°C° 0 mm 8 mps 750 mmHg 41%
    14:00 +27°C° 0 mm 9 mps 750 mmHg 42%
    15:00 +27°C° 0 mm 9 mps 750 mmHg 44%
    16:00 +26°C° 0 mm 10 mps 750 mmHg 45%
    17:00 +23°C° 0 mm 9 mps 750 mmHg 52%
    18:00 +22°C° 0 mm 9 mps 750 mmHg 58%
    19:00 +20°C° 0 mm 8 mps 750 mmHg 65%
    20:00 +18°C° 0 mm 8 mps 750 mmHg 67%
    21:00 +17°C° 0 mm 7 mps 750 mmHg 68%
    22:00 +17°C° 0 mm 7 mps 751 mmHg 69%
    23:00 +17°C° 0 mm 6 mps 750 mmHg 69%

    5 June, Friday

    Time Temperature Precipitation Wind Pressure Humidity
    00:00 +16°C° 0 mm 5 mps 750 mmHg 70%
    01:00 +16°C° 0 mm 5 mps 750 mmHg 70%
    02:00 +17°C° 0 mm 4 mps 750 mmHg 66%
    03:00 +18°C° 0 mm 4 mps 750 mmHg 63%
    04:00 +18°C° 0 mm 4 mps 749 mmHg 60%
    05:00 +19°C° 0 mm 4 mps 750 mmHg 58%
    06:00 +20°C° 0 mm 4 mps 750 mmHg 56%
    07:00 +21°C° 0 mm 4 mps 750 mmHg 54%
    08:00 +21°C° 0.6 mm 5 mps 750 mmHg 57%
    09:00 +20°C° 0.6 mm 7 mps 750 mmHg 61%
    10:00 +19°C° 0.6 mm 9 mps 750 mmHg 64%
    11:00 +18°C° 0.8 mm 7 mps 749 mmHg 69%
    12:00 +19°C° 0.8 mm 5 mps 749 mmHg 74%
    13:00 +18°C° 0.8 mm 3 mps 749 mmHg 79%
    14:00 +18°C° 1 mm 3 mps 749 mmHg 81%
    15:00 +18°C° 1 mm 3 mps 748 mmHg 84%
    16:00 +18°C° 1 mm 4 mps 748 mmHg 86%
    17:00 +18°C° 0.1 mm 4 mps 748 mmHg 85%
    18:00 +18°C° 0.1 mm 4 mps 748 mmHg 84%
    19:00 +18°C° 0.1 mm 4 mps 748 mmHg 83%
    20:00 +17°C° 0.2 mm 4 mps 748 mmHg 83%
    21:00 +17°C° 0.2 mm 3 mps 748 mmHg 83%
    22:00 +17°C° 0.2 mm 3 mps 749 mmHg 82%
    23:00 +17°C° 0.6 mm 3 mps 749 mmHg 84%

    6 June, Saturday

    Time Temperature Precipitation Wind Pressure Humidity
    00:00 +15°C° 0.6 mm 4 mps 748 mmHg 85%
    01:00 +15°C° 0.6 mm 4 mps 748 mmHg 86%
    02:00 +16°C° 0.1 mm 3 mps 748 mmHg 85%
    03:00 +16°C° 0.1 mm 2 mps 748 mmHg 85%
    04:00 +16°C° 0.1 mm 2 mps 748 mmHg 84%
    05:00 +18°C° 0 mm 1 mps 749 mmHg 79%
    06:00 +19°C° 0 mm 1 mps 749 mmHg 75%
    07:00 +21°C° 0 mm 1 mps 750 mmHg 70%
    08:00 +22°C° 0 mm 1 mps 750 mmHg 65%
    09:00 +23°C° 0 mm 1 mps 750 mmHg 59%
    10:00 +25°C° 0 mm 2 mps 750 mmHg 54%
    11:00 +25°C° 0 mm 3 mps 750 mmHg 54%
    12:00 +26°C° 0 mm 3 mps 750 mmHg 54%
    13:00 +26°C° 0 mm 4 mps 750 mmHg 54%
    14:00 +26°C° 0 mm 3 mps 750 mmHg 56%
    15:00 +25°C° 0 mm 3 mps 750 mmHg 57%
    16:00 +25°C° 0 mm 3 mps 750 mmHg 58%
    17:00 +24°C° 0 mm 2 mps 750 mmHg 65%
    18:00 +21°C° 0 mm 2 mps 750 mmHg 72%
    19:00 +20°C° 0 mm 1 mps 750 mmHg 78%
    20:00 +20°C° 0 mm 1 mps 751 mmHg 80%
    21:00 +19°C° 0 mm 1 mps 751 mmHg 82%
    22:00 +18°C° 0 mm 1 mps 752 mmHg 83%
    23:00 +18°C° 0 mm 1 mps 752 mmHg 84%

    7 June, Sunday

    Time Temperature Precipitation Wind Pressure Humidity
    00:00 +18°C° 0 mm 1 mps 752 mmHg 85%
    01:00 +16°C° 0 mm 0 mps 752 mmHg 86%
    02:00 +16°C° 0 mm 1 mps 751 mmHg 86%
    03:00 +16°C° 0 mm 1 mps 751 mmHg 87%
    04:00 +16°C° 0 mm 1 mps 751 mmHg 87%
    05:00 +19°C° 0 mm 1 mps 751 mmHg 81%
    06:00 +21°C° 0 mm 1 mps 752 mmHg 75%
    07:00 +22°C° 0 mm 1 mps 752 mmHg 68%
    08:00 +24°C° 0 mm 1 mps 752 mmHg 62%
    09:00 +26°C° 0 mm 1 mps 752 mmHg 56%
    10:00 +27°C° 0 mm 1 mps 752 mmHg 50%
    11:00 +28°C° 0 mm 2 mps 752 mmHg 49%
    12:00 +28°C° 0 mm 2 mps 752 mmHg 48%
    13:00 +29°C° 0 mm 3 mps 752 mmHg 46%
    14:00 +28°C° 0 mm 2 mps 751 mmHg 48%
    15:00 +27°C° 0 mm 2 mps 751 mmHg 50%
    16:00 +27°C° 0 mm 1 mps 751 mmHg 51%
    17:00 +25°C° 0 mm 1 mps 751 mmHg 58%
    18:00 +23°C° 0 mm 1 mps 751 mmHg 64%
    19:00 +22°C° 0 mm 1 mps 751 mmHg 71%
    20:00 +21°C° 0 mm 1 mps 752 mmHg 73%
    21:00 +19°C° 0 mm 2 mps 752 mmHg 75%
    22:00 +19°C° 0 mm 2 mps 752 mmHg 77%
    23:00 +18°C° 0 mm 2 mps 752 mmHg 77%
    Show more